QPF
0.00 0.00 0.00 0.00 0.00 0.00 0.00 0.00 0.00 0.00 0.00 0.00 0.00 0.00 0.00 0.00 0.00 0.00 0.00 0.00 0.00 0.00 0.00 0.00 0.00 0.00 0.00 0.00 0.00 0.00 0.00 0.00 0.00 0.00 0.00 0.00 0.00 0.00 0.00 0.00 0.00 0.00 0.00 0.01
0.00 0.00 0.00 0.00 0.00 0.00 0.00 0.00 0.00 0.00 0.00 0.00 0.00 0.00 0.00 0.00 0.00 0.00 0.00 0.00 0.00 0.00 0.00 0.00 0.00 0.00 0.00 0.00 0.00 0.00 0.00 0.00 0.00 0.00 0.00 0.00 0.00 0.00 0.00 0.00 0.00 0.00 0.00 0.00
0.00 0.00 0.00 0.00 0.00 0.00 0.00 0.00 0.00 0.00 0.00 0.00 0.00 0.00 0.00 0.00 0.00 0.00 0.00 0.00 0.00 0.00 0.00 0.00 0.00 0.00 0.00 0.00 0.00 0.00 0.00 0.00 0.00 0.00 0.00 0.00 0.00 0.00 0.00 0.00 0.00 0.00 0.00 0.00
0.00 0.00 0.00 0.00 0.00 0.00 0.00 0.00 0.00 0.00 0.00 0.00 0.00 0.00 0.00 0.00 0.00 0.00 0.00 0.00 0.00 0.00 0.00 0.00 0.00 0.00 0.00 0.00 0.00 0.00 0.00 0.00 0.00 0.00 0.00 0.00 0.00 0.00 0.00 0.00 0.00 0.00 0.00 0.00
0.00 0.00 0.00 0.00 0.00 0.00 0.00 0.00 0.00 0.00 0.00 0.00 0.00 0.00 0.00 0.00 0.00 0.00 0.00 0.00 0.00 0.00 0.00 0.00 0.00 0.00 0.00 0.00 0.00 0.00 0.00 0.00 0.00 0.00 0.00 0.00 0.00 0.00 0.00 0.00 0.00 0.00 0.00 0.00
0.00 0.00 0.00 0.00 0.00 0.00 0.00 0.00 0.00 0.00 0.00 0.00 0.00 0.00 0.00 0.00 0.00 0.00 0.00 0.00 0.00 0.00 0.00 0.00 0.00 0.00 0.00 0.00 0.00 0.00 0.00 0.00 0.00 0.00 0.00 0.00 0.00 0.00 0.00 0.00 0.00 0.00 0.00 0.00
0.00 0.00 0.00 0.00 0.00 0.00 0.00 0.00 0.00 0.00 0.00 0.00 0.00 0.00 0.00 0.00 0.00 0.00 0.00 0.00 0.00 0.00 0.00 0.00 0.00 0.00 0.00 0.00 0.00 0.00 0.00 0.00 0.00 0.00 0.00 0.00 0.00 0.00 0.00 0.00 0.01 0.01 0.00 0.00
0.00 0.00 0.00 0.00 0.00 0.00 0.00 0.00 0.00 0.00 0.00 0.00 0.00 0.00 0.00 0.00 0.00 0.00 0.00 0.00 0.00 0.00 0.00 0.00 0.00 0.00 0.00 0.00 0.00 0.00 0.00 0.00 0.00 0.00 0.00 0.00 0.00 0.00 0.00 0.00 0.01 0.01 0.00 0.00
0.00 0.00 0.00 0.00 0.00 0.00 0.00 0.00 0.00 0.00 0.00 0.00 0.00 0.00 0.00 0.00 0.00 0.00 0.00 0.00 0.00 0.00 0.00 0.00 0.00 0.00 0.00 0.00 0.00 0.00 0.00 0.00 0.00 0.00 0.00 0.00 0.01 0.01 0.01 0.01 0.02 0.02 0.02 0.01
0.00 0.00 0.00 0.00 0.00 0.00 0.00 0.00 0.00 0.00 0.00 0.00 0.00 0.00 0.00 0.00 0.00 0.00 0.00 0.00 0.00 0.00 0.00 0.00 0.00 0.00 0.00 0.00 0.00 0.00 0.00 0.00 0.00 0.01 0.01 0.05 0.02 0.03 0.05 0.05 0.04 0.04 0.06 0.05
0.00 0.00 0.00 0.00 0.00 0.00 0.00 0.00 0.00 0.00 0.00 0.00 0.00 0.00 0.00 0.00 0.00 0.00 0.00 0.00 0.00 0.00 0.00 0.00 0.00 0.00 0.00 0.00 0.00 0.00 0.00 0.00 0.00 0.00 0.01 0.03 0.03 0.05 0.10 0.09 0.19 0.07 0.02 0.02
0.00 0.00 0.00 0.00 0.00 0.00 0.00 0.00 0.00 0.00 0.00 0.00 0.00 0.00 0.00 0.00 0.00 0.00 0.00 0.00 0.00 0.00 0.00 0.00 0.00 0.00 0.00 0.00 0.00 0.00 0.00 0.00 0.00 0.00 0.00 0.01 0.02 0.06 0.10 0.17 0.14 0.11 0.04 0.02
0.00 0.00 0.00 0.00 0.00 0.00 0.00 0.00 0.00 0.00 0.00 0.00 0.00 0.00 0.00 0.00 0.00 0.00 0.00 0.00 0.00 0.00 0.00 0.00 0.00 0.00 0.00 0.00 0.00 0.00 0.00 0.00 0.00 0.00 0.00 0.00 0.01 0.03 0.06 0.14 0.11 0.12 0.14 0.03
0.00 0.00 0.00 0.00 0.00 0.00 0.00 0.00 0.00 0.01 0.01 0.00 0.00 0.00 0.00 0.00 0.00 0.00 0.00 0.00 0.00 0.00 0.00 0.00 0.00 0.00 0.00 0.00 0.00 0.00 0.00 0.00 0.00 0.00 0.00 0.00 0.00 0.00 0.01 0.09 0.12 0.22 0.16 0.16
0.00 0.01 0.00 0.00 0.00 0.01 0.00 0.00 0.00 0.00 0.00 0.00 0.00 0.01 0.00 0.00 0.00 0.00 0.00 0.00 0.00 0.00 0.00 0.00 0.00 0.00 0.00 0.00 0.00 0.00 0.00 0.00 0.00 0.00 0.00 0.00 0.00 0.00 0.00 0.00 0.01 0.07 0.14 0.34
0.01 0.00 0.01 0.01 0.01 0.02 0.01 0.00 0.00 0.00 0.00 0.00 0.00 0.01 0.00 0.00 0.00 0.00 0.00 0.00 0.00 0.00 0.00 0.00 0.00 0.00 0.00 0.00 0.00 0.00 0.00 0.00 0.00 0.00 0.00 0.00 0.00 0.00 0.00 0.00 0.00 0.00 0.01 0.07
0.00 0.00 0.00 0.02 0.00 0.05 0.09 0.00 0.00 0.00 0.00 0.00 0.01 0.00 0.00 0.00 0.00 0.00 0.00 0.00 0.00 0.00 0.00 0.00 0.00 0.00 0.00 0.00 0.00 0.00 0.00 0.00 0.00 0.00 0.00 0.00 0.00 0.00 0.00 0.00 0.00 0.00 0.00 0.01
0.00 0.00 0.01 0.00 0.02 0.08 0.02 0.00 0.00 0.00 0.00 0.00 0.00 0.00 0.00 0.00 0.00 0.00 0.00 0.00 0.00 0.00 0.00 0.00 0.00 0.00 0.00 0.00 0.00 0.00 0.00 0.00 0.00 0.00 0.00 0.00 0.00 0.00 0.00 0.00 0.00 0.00 0.01 0.01
0.00 0.01 0.05 0.01 0.02 0.00 0.00 0.00 0.00 0.00 0.00 0.00 0.00 0.00 0.00 0.00 0.00 0.00 0.00 0.00 0.00 0.00 0.00 0.00 0.00 0.00 0.00 0.00 0.00 0.00 0.00 0.00 0.00 0.00 0.00 0.00 0.00 0.00 0.00 0.00 0.00 0.00 0.01 0.03
0.00 0.02 0.05 0.05 0.03 0.00 0.00 0.00 0.00 0.00 0.00 0.00 0.00 0.00 0.00 0.00 0.00 0.00 0.00 0.00 0.00 0.00 0.00 0.00 0.00 0.00 0.00 0.00 0.00 0.00 0.00 0.00 0.00 0.00 0.00 0.00 0.00 0.00 0.00 0.00 0.00 0.00 0.00 0.01
0.01 0.02 0.03 0.01 0.00 0.00 0.00 0.00 0.00 0.00 0.00 0.00 0.00 0.00 0.00 0.00 0.00 0.00 0.00 0.00 0.00 0.00 0.00 0.00 0.00 0.00 0.00 0.00 0.00 0.00 0.00 0.00 0.00 0.00 0.00 0.00 0.00 0.00 0.00 0.00 0.00 0.00 0.00 0.00
0.00 0.00 0.00 0.00 0.00 0.00 0.00 0.00 0.00 0.00 0.00 0.00 0.00 0.00 0.00 0.00 0.00 0.00 0.00 0.00 0.00 0.00 0.00 0.00 0.00 0.00 0.00 0.00 0.00 0.00 0.00 0.00 0.00 0.00 0.00 0.00 0.00 0.00 0.00 0.00 0.00 0.00 0.00 0.00
0.00 0.00 0.00 0.00 0.00 0.00 0.00 0.00 0.00 0.00 0.00 0.00 0.00 0.00 0.00 0.00 0.00 0.00 0.00 0.00 0.00 0.00 0.00 0.00 0.00 0.00 0.00 0.00 0.00 0.00 0.00 0.00 0.00 0.00 0.00 0.00 0.00 0.00 0.00 0.00 0.00 0.00 0.00 0.00
0.00 0.00 0.00 0.00 0.00 0.00 0.00 0.00 0.00 0.00 0.00 0.00 0.00 0.00 0.00 0.00 0.00 0.00 0.00 0.00 0.00 0.00 0.00 0.00 0.00 0.00 0.00 0.00 0.00 0.00 0.00 0.00 0.00 0.00 0.00 0.00 0.00 0.00 0.00 0.00 0.00 0.00 0.00 0.01
0.00 0.00 0.00 0.04 0.08 0.01 0.00 0.00 0.00 0.00 0.00 0.00 0.00 0.00 0.00 0.00 0.00 0.00 0.00 0.00 0.00 0.00 0.00 0.00 0.00 0.00 0.00 0.00 0.00 0.00 0.00 0.00 0.00 0.00 0.00 0.00 0.00 0.00 0.00 0.01 0.01 0.02 0.01 0.03
0.00 0.00 0.01 0.08 0.03 0.01 0.00 0.00 0.00 0.00 0.00 0.00 0.00 0.00 0.00 0.00 0.00 0.00 0.00 0.00 0.00 0.00 0.00 0.00 0.00 0.00 0.00 0.00 0.00 0.00 0.00 0.00 0.01 0.01 0.01 0.01 0.02 0.01 0.00 0.00 0.00 0.00 0.00 0.00
MSLP
1014.74 1015.40 1015.54 1015.46 1015.37 1014.86 1014.58 1014.20 1013.82 1013.10 1012.57 1012.93 1013.27 1013.66 1013.78 1014.30 1015.73 1017.25 1018.19 1018.52 1018.63 1018.80 1019.27 1019.31 1019.24 1019.81 1020.16 1020.17 1020.04 1019.90 1019.71 1019.18 1018.73 1018.18 1017.45 1016.67 1016.15 1015.36 1014.70 1014.14 1013.55 1012.91 1012.12 1011.56
1015.43 1015.16 1014.56 1014.86 1015.11 1014.87 1014.53 1014.28 1013.87 1013.21 1012.94 1013.36 1014.09 1014.59 1014.39 1014.85 1016.45 1017.48 1018.36 1018.91 1019.01 1019.27 1019.37 1019.30 1019.43 1019.78 1020.00 1020.27 1020.67 1020.41 1019.97 1019.55 1019.23 1018.68 1018.09 1017.40 1016.45 1015.22 1014.58 1013.70 1013.02 1012.41 1011.70 1011.01
1014.75 1014.11 1013.79 1014.44 1014.56 1014.63 1014.28 1013.98 1013.68 1013.72 1013.66 1013.84 1014.58 1015.58 1015.50 1016.81 1017.49 1018.28 1018.93 1019.08 1019.22 1019.43 1019.57 1019.73 1020.01 1020.50 1020.55 1020.85 1020.84 1020.54 1020.19 1019.73 1019.16 1018.72 1017.99 1017.15 1016.25 1014.94 1014.07 1013.27 1012.38 1011.67 1011.27 1010.66
1014.40 1013.62 1013.87 1013.79 1013.76 1013.69 1013.78 1013.68 1013.89 1014.09 1014.54 1015.29 1015.47 1016.20 1016.18 1017.15 1018.20 1018.79 1019.42 1019.44 1019.50 1019.73 1019.88 1020.04 1020.09 1020.27 1020.81 1021.40 1021.35 1020.71 1020.10 1019.64 1019.14 1018.73 1018.03 1017.37 1016.35 1015.08 1014.16 1012.97 1011.85 1010.96 1010.35 1009.81
1013.03 1012.69 1013.08 1013.20 1012.97 1013.24 1013.70 1013.99 1014.40 1014.95 1015.67 1016.06 1016.23 1017.08 1015.95 1017.10 1018.18 1018.82 1019.30 1019.55 1019.66 1019.92 1020.11 1020.35 1020.79 1021.37 1021.68 1021.55 1020.93 1020.36 1019.94 1019.68 1019.16 1018.61 1018.27 1017.33 1016.22 1015.23 1013.88 1012.60 1011.35 1010.26 1009.32 1008.64
1012.60 1012.17 1012.31 1012.24 1012.42 1012.76 1013.79 1014.59 1015.34 1016.04 1016.73 1016.70 1016.43 1016.99 1015.63 1016.36 1016.94 1018.56 1019.30 1019.52 1019.66 1019.80 1020.07 1020.50 1021.23 1021.69 1021.98 1021.50 1020.60 1019.91 1019.85 1019.80 1019.08 1018.58 1017.93 1017.09 1016.03 1014.74 1013.36 1012.18 1010.85 1009.46 1008.24 1007.07
1012.54 1011.83 1011.79 1011.90 1012.70 1013.34 1013.88 1015.23 1016.80 1017.57 1017.73 1016.84 1015.94 1016.85 1015.48 1016.09 1017.21 1018.14 1019.17 1019.64 1019.77 1020.15 1020.50 1020.91 1021.39 1021.99 1021.89 1020.68 1019.99 1020.10 1020.11 1019.51 1019.10 1018.25 1017.32 1016.75 1015.63 1014.44 1013.03 1011.72 1010.29 1008.91 1007.56 1006.29
1012.41 1011.77 1011.33 1011.12 1011.58 1012.91 1014.08 1014.73 1016.51 1017.30 1017.25 1016.54 1016.06 1016.47 1016.21 1016.77 1017.67 1018.62 1019.35 1019.69 1020.14 1020.49 1020.94 1021.50 1021.93 1021.70 1021.22 1020.76 1020.64 1020.84 1020.42 1019.69 1018.69 1017.97 1017.29 1016.48 1015.34 1014.27 1012.70 1011.36 1009.93 1008.36 1006.92 1005.22
1011.97 1011.33 1010.44 1010.39 1010.88 1011.88 1013.75 1014.50 1015.19 1016.70 1017.26 1017.16 1016.38 1016.89 1017.60 1017.62 1018.45 1019.29 1019.77 1019.99 1020.23 1020.69 1021.32 1021.67 1021.42 1021.19 1021.22 1020.96 1021.03 1021.27 1020.64 1019.67 1018.49 1017.86 1017.28 1016.04 1014.83 1013.71 1012.30 1011.11 1009.77 1008.06 1006.17 1004.19
1011.01 1011.25 1010.74 1010.83 1011.03 1011.81 1012.41 1013.79 1015.25 1016.34 1016.92 1017.01 1016.20 1016.16 1016.08 1017.40 1018.41 1019.28 1019.91 1020.01 1020.38 1020.72 1020.93 1021.16 1021.08 1021.49 1021.53 1021.32 1021.38 1021.23 1020.42 1019.46 1018.50 1017.83 1017.08 1015.83 1014.78 1013.43 1012.24 1010.97 1009.13 1007.51 1005.76 1003.62
1010.67 1011.34 1011.80 1011.55 1011.50 1011.90 1012.81 1013.54 1014.52 1015.36 1016.20 1015.96 1016.00 1015.68 1015.18 1016.79 1018.26 1019.32 1019.78 1019.76 1019.77 1020.15 1020.44 1021.27 1021.97 1021.70 1021.18 1020.94 1021.06 1020.61 1020.05 1019.47 1018.48 1017.68 1016.72 1015.58 1014.32 1013.19 1011.80 1010.51 1008.98 1006.97 1005.47 1003.40
1010.24 1011.23 1012.15 1011.80 1011.78 1011.74 1012.26 1012.85 1013.89 1014.49 1015.23 1015.74 1016.04 1016.18 1016.42 1017.47 1018.47 1019.22 1019.53 1019.65 1019.76 1020.25 1021.26 1021.84 1021.90 1021.59 1021.29 1021.03 1020.66 1020.48 1020.24 1019.67 1018.54 1017.53 1016.49 1015.40 1014.22 1013.04 1011.43 1010.05 1008.59 1006.98 1004.82 1003.43
1010.20 1011.61 1012.63 1012.76 1012.67 1012.42 1012.83 1013.09 1013.28 1014.10 1014.73 1015.15 1016.22 1016.62 1017.20 1017.95 1018.61 1019.24 1019.32 1019.66 1020.41 1020.90 1021.33 1021.84 1021.99 1021.87 1021.85 1021.47 1021.06 1020.88 1020.43 1019.59 1018.51 1017.48 1016.32 1015.21 1013.98 1012.98 1011.48 1009.97 1008.56 1007.05 1005.20 1003.77
1009.95 1011.84 1012.73 1012.61 1012.58 1012.61 1013.12 1013.20 1013.26 1014.07 1014.70 1014.67 1014.99 1016.31 1017.42 1018.04 1018.50 1019.05 1019.50 1019.96 1020.39 1020.82 1021.26 1021.77 1022.13 1021.82 1022.15 1021.90 1021.66 1020.99 1020.19 1019.37 1018.49 1017.59 1016.42 1015.30 1014.03 1012.95 1011.54 1010.10 1008.63 1007.25 1005.81 1004.14
1011.33 1011.89 1012.73 1012.86 1012.75 1013.13 1013.59 1013.66 1013.74 1013.60 1013.64 1014.04 1014.66 1015.31 1016.51 1017.39 1018.01 1018.89 1019.53 1019.80 1020.21 1020.81 1021.12 1021.47 1021.76 1021.99 1022.57 1022.38 1021.55 1020.50 1019.95 1019.36 1018.50 1017.61 1016.57 1015.48 1014.28 1013.05 1011.78 1010.42 1009.01 1007.84 1006.05 1004.98
1012.63 1013.07 1013.11 1013.12 1013.12 1013.28 1013.78 1013.46 1013.70 1013.36 1013.16 1013.71 1014.40 1014.88 1015.80 1017.16 1018.35 1019.30 1019.68 1020.04 1020.45 1020.85 1021.09 1021.50 1021.72 1022.48 1022.72 1021.94 1021.04 1020.40 1019.95 1019.39 1018.65 1017.77 1016.73 1015.62 1014.47 1013.23 1012.07 1010.76 1009.34 1008.01 1006.96 1005.68
1013.24 1013.26 1013.80 1013.62 1014.03 1014.47 1014.04 1011.76 1012.56 1012.61 1012.31 1013.14 1013.86 1014.37 1016.02 1017.57 1018.64 1019.32 1020.02 1020.39 1020.60 1020.91 1021.22 1021.60 1022.15 1022.43 1022.42 1021.96 1021.23 1020.57 1020.06 1019.43 1018.88 1017.97 1016.97 1016.01 1014.96 1013.75 1012.43 1011.47 1010.18 1008.72 1007.59 1006.49
1012.90 1013.44 1014.28 1014.80 1014.71 1014.08 1010.91 1009.80 1010.19 1011.08 1011.95 1012.58 1013.57 1014.40 1015.86 1017.41 1018.78 1019.78 1020.23 1020.31 1020.50 1021.01 1021.52 1021.93 1021.98 1022.30 1022.43 1021.98 1021.47 1020.87 1020.31 1019.60 1018.99 1017.97 1017.12 1016.33 1015.37 1014.29 1013.18 1012.13 1010.94 1009.67 1008.53 1007.47
1012.40 1013.60 1015.26 1015.37 1014.78 1013.17 1011.29 1009.94 1009.78 1009.90 1011.79 1012.51 1013.88 1015.25 1016.61 1018.17 1019.20 1020.11 1020.05 1020.01 1020.45 1021.11 1021.69 1021.95 1021.89 1022.52 1022.68 1022.21 1021.79 1021.09 1020.46 1019.86 1019.00 1018.04 1017.30 1016.60 1015.84 1014.87 1013.83 1012.71 1011.88 1010.64 1009.24 1007.90
1013.12 1013.58 1015.02 1015.35 1014.77 1013.43 1011.14 1009.97 1009.71 1010.26 1011.90 1012.44 1013.82 1015.44 1016.86 1018.30 1019.39 1020.16 1020.05 1020.29 1020.95 1021.52 1022.15 1022.42 1022.44 1022.82 1022.72 1022.47 1022.04 1021.46 1020.86 1020.16 1019.23 1018.31 1017.55 1016.85 1016.06 1015.23 1014.47 1013.60 1012.82 1011.68 1010.25 1009.26
1013.71 1014.41 1014.60 1014.80 1014.30 1012.50 1011.10 1010.14 1009.85 1011.39 1013.25 1013.47 1014.83 1016.10 1017.16 1018.54 1019.11 1019.88 1020.58 1021.21 1021.64 1022.31 1022.75 1022.93 1023.01 1023.04 1022.93 1022.67 1022.33 1021.94 1021.35 1020.52 1019.69 1018.75 1017.89 1017.05 1016.30 1015.38 1014.79 1013.92 1013.16 1012.08 1011.08 1009.84
1012.18 1013.46 1013.93 1014.37 1014.04 1012.66 1010.68 1010.69 1011.14 1012.74 1013.76 1014.44 1015.91 1016.91 1017.54 1018.80 1019.70 1020.50 1021.36 1021.96 1022.43 1023.05 1023.51 1023.59 1023.63 1023.40 1023.20 1023.00 1022.70 1022.45 1021.71 1020.95 1020.06 1018.96 1018.11 1017.32 1016.55 1015.70 1015.04 1014.43 1013.76 1012.83 1011.56 1010.41
1011.68 1011.45 1012.24 1012.66 1012.35 1011.65 1011.33 1011.51 1012.32 1013.12 1013.85 1015.67 1016.19 1017.41 1018.15 1019.57 1020.68 1021.34 1022.15 1022.88 1023.50 1024.08 1024.28 1024.39 1024.32 1023.99 1023.87 1023.42 1023.00 1022.65 1022.04 1021.17 1020.29 1019.37 1018.45 1017.53 1016.77 1016.11 1015.17 1014.71 1014.05 1013.30 1012.34 1011.46
1010.83 1010.88 1011.59 1011.95 1012.45 1012.16 1012.30 1012.96 1013.60 1014.11 1015.22 1016.31 1017.21 1018.10 1019.08 1020.51 1021.41 1022.13 1023.20 1023.90 1024.37 1024.80 1024.95 1024.91 1024.69 1024.45 1024.23 1023.83 1023.48 1023.02 1022.41 1021.52 1020.59 1019.85 1018.98 1017.99 1017.23 1016.48 1015.67 1015.24 1014.72 1013.99 1013.30 1012.47
1010.07 1010.44 1011.54 1012.74 1013.45 1013.46 1013.68 1013.67 1014.66 1015.69 1016.53 1017.45 1018.37 1019.21 1020.22 1021.04 1022.24 1023.21 1024.07 1024.66 1025.21 1025.56 1025.62 1025.44 1025.37 1025.16 1024.89 1024.52 1023.96 1023.45 1022.78 1021.88 1020.95 1020.29 1019.54 1018.60 1017.85 1017.22 1016.52 1015.76 1015.40 1015.08 1014.80 1014.01
1009.87 1010.15 1011.29 1012.21 1013.11 1013.46 1014.71 1015.09 1015.74 1016.59 1017.68 1018.50 1019.34 1020.57 1021.38 1021.94 1023.00 1023.96 1024.92 1025.58 1025.96 1026.14 1026.11 1026.09 1026.21 1026.01 1025.62 1025.08 1024.48 1023.86 1023.15 1022.32 1021.48 1020.75 1019.99 1019.31 1018.69 1018.03 1017.51 1017.01 1016.54 1015.94 1015.46 1014.69
Thickness
5625 5614 5606 5612 5617 5627 5629 5631 5627 5638 5651 5642 5635 5638 5643 5642 5624 5614 5610 5610 5612 5611 5606 5601 5599 5592 5588 5586 5585 5583 5583 5584 5585 5587 5590 5594 5595 5600 5604 5605 5607 5613 5621 5627
5612 5608 5623 5623 5619 5622 5621 5617 5620 5634 5642 5636 5629 5627 5634 5637 5619 5611 5602 5597 5597 5599 5595 5595 5590 5583 5580 5576 5570 5570 5571 5570 5570 5570 5571 5572 5576 5584 5583 5587 5591 5596 5602 5609
5606 5618 5631 5621 5617 5617 5621 5618 5622 5622 5625 5627 5618 5602 5617 5604 5604 5600 5595 5593 5592 5591 5586 5584 5579 5571 5567 5561 5559 5558 5556 5555 5556 5555 5555 5555 5554 5555 5556 5560 5566 5572 5578 5588
5604 5624 5616 5616 5616 5622 5610 5624 5622 5619 5606 5590 5604 5573 5604 5596 5590 5588 5582 5578 5579 5577 5575 5572 5567 5564 5556 5547 5544 5545 5544 5543 5542 5538 5536 5530 5527 5529 5531 5538 5541 5543 5551 5563
5609 5620 5607 5608 5618 5620 5611 5615 5609 5607 5591 5588 5591 5575 5587 5592 5583 5580 5575 5574 5570 5566 5563 5558 5551 5545 5539 5536 5538 5536 5534 5530 5527 5521 5512 5507 5509 5510 5516 5522 5530 5537 5544 5550
5605 5618 5616 5612 5616 5618 5607 5600 5594 5582 5572 5561 5585 5579 5588 5592 5591 5576 5570 5565 5562 5560 5555 5548 5537 5531 5526 5527 5530 5530 5523 5513 5510 5505 5498 5495 5496 5499 5505 5511 5519 5528 5535 5544
5597 5606 5610 5611 5596 5598 5594 5582 5556 5553 5547 5561 5586 5574 5600 5586 5581 5573 5558 5552 5553 5546 5539 5535 5528 5518 5518 5523 5524 5517 5509 5504 5497 5494 5490 5488 5486 5489 5495 5499 5505 5511 5515 5524
5571 5575 5598 5606 5599 5585 5578 5576 5544 5548 5549 5563 5579 5570 5574 5572 5566 5557 5549 5543 5539 5530 5526 5519 5513 5510 5511 5512 5507 5498 5494 5493 5490 5483 5478 5476 5478 5478 5484 5485 5488 5490 5492 5502
5561 5575 5601 5601 5600 5593 5569 5559 5572 5551 5549 5540 5555 5552 5554 5556 5549 5541 5533 5530 5526 5520 5516 5510 5506 5503 5501 5498 5493 5483 5483 5481 5479 5472 5468 5468 5470 5472 5476 5474 5472 5471 5471 5481
5573 5563 5586 5587 5589 5583 5573 5571 5546 5537 5540 5537 5551 5555 5557 5547 5540 5531 5520 5519 5516 5514 5508 5502 5499 5492 5487 5484 5478 5473 5473 5471 5469 5465 5459 5461 5460 5464 5465 5465 5467 5467 5469 5479
5565 5554 5560 5568 5562 5562 5558 5549 5552 5544 5532 5536 5542 5555 5561 5548 5533 5518 5513 5514 5512 5508 5502 5492 5482 5481 5482 5479 5473 5471 5467 5462 5460 5457 5454 5456 5457 5458 5461 5463 5466 5469 5473 5484
5556 5540 5542 5551 5560 5564 5556 5553 5544 5520 5541 5535 5530 5536 5530 5520 5515 5506 5506 5506 5504 5499 5486 5476 5473 5471 5470 5470 5468 5462 5455 5450 5451 5449 5448 5450 5450 5453 5459 5464 5466 5470 5477 5484
5543 5516 5521 5534 5539 5542 5539 5544 5547 5535 5527 5530 5518 5527 5518 5513 5507 5499 5494 5494 5486 5482 5475 5464 5458 5453 5452 5455 5453 5447 5443 5441 5442 5441 5443 5444 5446 5447 5452 5460 5465 5470 5475 5483
5540 5514 5520 5529 5531 5528 5524 5533 5537 5521 5509 5525 5529 5507 5504 5499 5494 5488 5483 5481 5477 5470 5464 5455 5444 5441 5436 5439 5436 5437 5436 5436 5434 5432 5435 5437 5440 5443 5448 5455 5463 5467 5472 5481
5513 5514 5516 5520 5520 5515 5517 5518 5520 5511 5521 5511 5523 5513 5504 5496 5485 5477 5474 5473 5467 5459 5453 5447 5439 5430 5420 5421 5426 5433 5430 5428 5426 5425 5427 5428 5433 5436 5442 5448 5456 5462 5469 5472
5496 5496 5499 5507 5511 5507 5504 5505 5504 5507 5515 5515 5514 5509 5505 5484 5471 5463 5463 5460 5454 5447 5443 5437 5433 5422 5412 5419 5425 5425 5422 5419 5417 5418 5420 5422 5423 5430 5433 5440 5448 5456 5460 5467
5476 5482 5482 5490 5496 5483 5463 5502 5493 5499 5510 5507 5504 5504 5482 5468 5461 5452 5446 5442 5439 5435 5429 5424 5418 5413 5410 5409 5412 5412 5412 5410 5407 5409 5410 5413 5415 5419 5426 5427 5434 5443 5451 5459
5466 5470 5467 5462 5459 5459 5515 5528 5520 5513 5505 5500 5488 5481 5472 5462 5447 5437 5433 5430 5428 5423 5418 5413 5411 5405 5398 5398 5398 5399 5399 5400 5398 5401 5402 5404 5405 5408 5414 5416 5421 5429 5437 5446
5478 5463 5446 5447 5453 5475 5494 5518 5518 5517 5499 5492 5477 5466 5455 5440 5430 5421 5426 5426 5421 5413 5406 5402 5402 5392 5386 5386 5385 5386 5386 5386 5388 5391 5392 5394 5395 5398 5402 5408 5409 5417 5426 5435
5468 5458 5452 5440 5445 5434 5480 5506 5512 5507 5478 5486 5472 5458 5445 5434 5418 5408 5417 5415 5407 5400 5393 5388 5386 5379 5375 5372 5371 5370 5370 5371 5375 5378 5380 5381 5386 5389 5392 5396 5398 5404 5414 5419
5438 5438 5441 5438 5432 5453 5481 5498 5502 5482 5465 5463 5452 5442 5437 5413 5409 5409 5404 5398 5393 5384 5378 5374 5370 5366 5362 5359 5356 5353 5353 5355 5358 5362 5365 5368 5373 5379 5383 5388 5391 5396 5401 5410
5452 5438 5432 5434 5438 5445 5485 5485 5482 5456 5449 5444 5431 5422 5420 5411 5405 5398 5390 5383 5376 5368 5361 5357 5352 5351 5348 5344 5340 5335 5336 5338 5340 5345 5348 5352 5357 5366 5372 5375 5379 5385 5392 5400
5442 5446 5442 5451 5440 5457 5461 5455 5449 5447 5440 5426 5422 5413 5407 5394 5388 5384 5375 5365 5358 5350 5344 5338 5334 5332 5328 5326 5324 5318 5317 5319 5321 5325 5330 5336 5342 5350 5361 5365 5369 5375 5381 5387
5458 5458 5439 5453 5447 5445 5444 5438 5434 5431 5421 5415 5407 5400 5393 5380 5374 5368 5356 5348 5341 5334 5327 5323 5319 5315 5311 5309 5305 5302 5300 5303 5307 5310 5315 5323 5329 5336 5345 5350 5355 5362 5367 5373
5449 5453 5440 5428 5419 5425 5427 5426 5419 5412 5406 5399 5393 5386 5378 5371 5359 5349 5340 5332 5324 5317 5311 5308 5302 5298 5296 5293 5292 5290 5290 5292 5297 5300 5304 5311 5317 5322 5328 5337 5341 5345 5348 5354
5442 5433 5430 5425 5416 5418 5407 5409 5405 5397 5390 5384 5378 5368 5363 5358 5347 5335 5323 5315 5308 5302 5299 5295 5289 5286 5284 5283 5282 5282 5282 5284 5288 5291 5296 5299 5304 5310 5314 5318 5323 5330 5335 5342